0 GLOBALSTAR M001 1 25162U 98008A 20358.12967412 -.00000011 00000-0 65960-3 0 9993 2 25162 52.0053 57.5678 0001644 77.6856 298.9673 12.38125176 41033 0 GLOBALSTAR M004 1 25163U 98008B 20358.15296806 -.00000071 00000-0 18115-3 0 9995 2 25163 52.0014 7.8510 0003092 258.9801 214.6121 12.63294302 54872 0 GLOBALSTAR M002 1 25164U 98008C 20358.06995742 -.00000068 00000-0 17013-3 0 9993 2 25164 52.0040 24.8618 0001145 41.3420 318.7486 11.61476972993906 0 GLOBALSTAR M003 1 25165U 98008D 20357.33660735 -.00000170 00000-0 -86072-3 0 9990 2 25165 51.9835 25.8882 0007415 229.3711 143.6409 12.11950573 34634 0 GLOBALSTAR M014 1 25306U 98023A 20357.36209177 -.00000070 00000-0 13294-3 0 9990 2 25306 51.9856 344.2650 0000589 217.4423 290.9302 11.65436941 275 0 GLOBALSTAR M006 1 25307U 98023B 20357.38734443 -.00000088 00000-0 -24864-3 0 9997 2 25307 51.9955 335.4726 0004140 38.0262 115.4620 11.58126674 27114 0 GLOBALSTAR M015 1 25308U 98023C 20357.42936204 -.00000010 00000-0 14504-2 0 9995 2 25308 51.9843 358.8718 0012534 45.6098 59.8227 11.48847729 5848 0 GLOBALSTAR M008 1 25309U 98023D 20357.14135843 -.00000086 00000-0 81892-4 0 9994 2 25309 51.9967 266.7638 0002780 344.0983 162.9996 12.35988347 35431 0 GLOBALSTAR M023 1 25621U 99004A 20357.51509075 -.00000224 00000-0 -66908-3 0 9999 2 25621 52.0129 359.5463 0009865 110.5856 62.3352 12.62396262 8947 0 GLOBALSTAR M040 1 25622U 99004B 20358.18556972 -.00000076 00000-0 15740-3 0 9994 2 25622 51.9934 359.2857 0000544 23.2403 54.3442 12.61902639 8870 0 GLOBALSTAR M036 1 25623U 99004C 20357.20399670 -.00000076 00000-0 10398-3 0 9991 2 25623 51.9951 237.4350 0010864 148.4293 359.1597 11.86573998984528 0 GLOBALSTAR M038 1 25624U 99004D 20357.46651847 -.00000128 00000-0 -26804-3 0 9995 2 25624 51.9977 107.6045 0001702 195.8156 239.1456 12.32449467 436 0 GLOBALSTAR M022 1 25649U 99012A 20357.51061133 -.00000091 00000-0 -45905-4 0 9993 2 25649 52.0061 62.5775 0002954 169.2388 204.1612 12.02443560979379 0 GLOBALSTAR M041 1 25650U 99012B 20357.45706649 -.00000080 00000-0 67014-4 0 9998 2 25650 52.0014 254.2306 0003343 7.3347 352.7538 11.96613416982214 0 GLOBALSTAR M046 1 25651U 99012C 20358.12631251 -.00000175 00000-0 -95522-3 0 9990 2 25651 52.0072 70.7666 0002356 202.3554 159.4805 12.09349088985936 0 GLOBALSTAR M037 1 25652U 99012D 20357.47024705 -.00000079 00000-0 13825-3 0 9996 2 25652 51.9992 130.9259 0002785 143.4378 247.3166 12.62336104 4492 0 GLOBALSTAR M045 1 25676U 99019A 20357.35884942 -.00000094 00000-0 -10188-6 0 9993 2 25676 51.9981 293.0005 0001142 67.4482 82.0158 12.26982108992529 0 GLOBALSTAR M019 1 25677U 99019B 20357.35880692 -.00000018 00000-0 75510-3 0 9994 2 25677 51.9895 308.2550 0000616 270.3916 227.1223 12.13819661986370 0 GLOBALSTAR M044 1 25678U 99019C 20358.14728888 -.00000071 00000-0 17132-3 0 9996 2 25678 51.9990 52.6450 0006923 127.1191 268.0925 11.90194646976372 0 GLOBALSTAR M042 1 25679U 99019D 20358.16645441 -.00000088 00000-0 39843-4 0 9994 2 25679 52.0033 351.9689 0002738 167.3010 281.2138 12.22021093985181 0 GLOBALSTAR M025 1 25770U 99031A 20358.19483904 -.00000058 00000-0 28719-3 0 9993 2 25770 51.9839 351.3854 0001198 276.1692 165.7688 11.22532918955531 0 GLOBALSTAR M049 1 25771U 99031B 20357.31799177 -.00000045 00000-0 70255-3 0 9997 2 25771 51.9888 305.8503 0002294 164.4471 195.6396 11.12086310935190 0 GLOBALSTAR M047 1 25772U 99031C 20357.46253274 -.00000065 00000-0 12203-3 0 9998 2 25772 51.9840 98.9626 0015447 332.1762 27.8217 11.31901139285659 0 GLOBALSTAR M052 1 25773U 99031D 20357.48218736 -.00000025 00000-0 13725-2 0 9990 2 25773 51.9883 77.2004 0001721 347.4313 25.5578 11.15033859295820 0 GLOBALSTAR M035 1 25851U 99037A 20357.44055854 -.00000101 00000-0 -14059-2 0 9996 2 25851 51.9951 107.1960 0013822 203.3815 228.4679 11.04515991915284 0 GLOBALSTAR M032 1 25852U 99037B 20357.38981888 -.00000115 00000-0 -15620-2 0 9995 2 25852 51.9979 45.5191 0003903 303.8912 56.1516 11.19043955951423 0 GLOBALSTAR M051 1 25853U 99037C 20357.40686086 -.00000083 00000-0 -27613-3 0 9991 2 25853 51.9820 31.7134 0001312 201.7896 158.2859 11.42177168945238 0 GLOBALSTAR M030 1 25854U 99037D 20358.16281817 -.00000081 00000-0 -12375-3 0 9996 2 25854 51.9890 300.0467 0003697 345.0604 15.0103 11.55064882960976 0 GLOBALSTAR M048 1 25872U 99041A 20357.50793497 -.00000069 00000-0 34612-4 0 9994 2 25872 51.9366 263.1612 0012259 228.6031 302.7482 11.33824400939348 0 GLOBALSTAR M026 1 25873U 99041B 20357.45187758 -.00000008 00000-0 20734-2 0 9997 2 25873 51.9992 242.3321 0002076 65.9168 105.0096 11.06789405967250 0 GLOBALSTAR M043 1 25874U 99041C 20357.40328410 -.00000110 00000-0 -12476-2 0 9994 2 25874 51.9413 305.8102 0012771 38.4881 110.6335 11.25663183938432 0 GLOBALSTAR M028 1 25875U 99041D 20358.08557263 -.00000090 00000-0 65920-4 0 9990 2 25875 51.9642 34.2048 0063797 117.1630 243.5753 12.50507031985384 0 GLOBALSTAR M024 1 25883U 99043A 20357.43758618 -.00000058 00000-0 23651-3 0 9994 2 25883 52.0004 115.8576 0000360 296.7329 94.6099 11.10141132932982 0 GLOBALSTAR M027 1 25884U 99043B 20357.12027277 -.00000068 00000-0 -15802-3 0 9992 2 25884 52.0186 148.2008 0021159 222.3511 137.5649 11.04359152960256 0 GLOBALSTAR M054 1 25885U 99043C 20357.83634652 -.00000057 00000-0 35997-3 0 9996 2 25885 52.0100 188.5885 0003744 191.7715 267.3052 11.39189633932777 0 GLOBALSTAR M053 1 25886U 99043D 20357.49051931 -.00000076 00000-0 -20075-3 0 9995 2 25886 52.0009 45.6872 0003719 174.7679 276.6481 11.27640163934764 0 GLOBALSTAR M058 1 25907U 99049A 20358.13233057 -.00000065 00000-0 26310-3 0 9993 2 25907 51.9911 160.2379 0001647 11.6006 348.4866 11.93131229957340 0 GLOBALSTAR M050 1 25908U 99049B 20357.36379431 -.00000128 00000-0 -44792-3 0 9990 2 25908 52.0000 292.3258 0009575 9.6997 136.5572 12.07392590950359 0 GLOBALSTAR M033 1 25909U 99049C 20357.27418477 -.00000103 00000-0 -10598-3 0 9995 2 25909 51.9918 277.5034 0012503 159.5325 200.6026 12.20212381335783 0 GLOBALSTAR M055 1 25910U 99049D 20357.31694564 -.00000072 00000-0 18701-3 0 9993 2 25910 52.0039 7.8185 0006881 329.3048 30.7400 12.29355420966849 0 GLOBALSTAR M057 1 25943U 99058A 20357.37019391 -.00000082 00000-0 10233-3 0 9997 2 25943 52.0002 315.8773 0002100 241.2172 118.8466 12.24735089966242 0 GLOBALSTAR M059 1 25944U 99058B 20357.62803954 -.00000122 00000-0 -44552-3 0 9999 2 25944 52.0033 317.0728 0001126 347.0042 184.4905 11.99933362966207 0 GLOBALSTAR M056 1 25945U 99058C 20357.42983354 -.00000015 00000-0 84638-3 0 9990 2 25945 51.9984 1.6240 0001151 161.9418 299.8768 12.04733841965220 0 GLOBALSTAR M031 1 25946U 99058D 20358.17023288 -.00000185 00000-0 -95725-3 0 9993 2 25946 51.9984 349.7943 0001555 95.6134 343.8537 12.15965842965632 0 GLOBALSTAR M039 1 25961U 99062A 20357.79448958 -.00000092 00000-0 67452-4 0 9990 2 25961 51.9824 215.3212 0002659 350.4284 9.6531 12.62223733973462 0 GLOBALSTAR M034 1 25962U 99062B 20357.34822990 -.00000066 00000-0 24317-3 0 9997 2 25962 51.9886 308.5715 0013895 185.7667 342.3509 11.79397456945127 0 GLOBALSTAR M029 1 25963U 99062C 20357.35490131 -.00000054 00000-0 40089-3 0 9998 2 25963 51.9775 207.2271 0003421 118.6625 52.4574 11.99848040972505 0 GLOBALSTAR M061 1 25964U 99062D 20358.11512855 -.00000103 00000-0 -37273-3 0 9999 2 25964 51.9792 108.9319 0007020 127.4421 289.6123 11.76732773928747 0 GLOBALSTAR M063 1 26081U 00008A 20357.47635399 -.00000071 00000-0 16544-3 0 9990 2 26081 51.9954 104.4909 0005119 68.7524 9.0424 11.86124145963232 0 GLOBALSTAR M062 1 26082U 00008B 20357.20285587 -.00000080 00000-0 13130-3 0 9990 2 26082 51.9829 232.0962 0005831 206.0468 302.6597 12.43371064293064 0 GLOBALSTAR M060 1 26083U 00008C 20358.20046110 .00000022 00000-0 11201-2 0 9990 2 26083 52.0035 317.6660 0004035 41.2552 58.4473 12.17582979953128 0 GLOBALSTAR M064 1 26084U 00008D 20358.10862374 -.00000093 00000-0 -14090-3 0 9998 2 26084 52.0010 220.9659 0001890 119.8647 240.2374 11.88487603972553 0 GLOBALSTAR M065 1 31571U 07020A 20357.22926021 -.00000096 00000-0 41018-4 0 9991 2 31571 51.9883 172.7090 0002532 101.6712 68.9572 12.62263495626819 0 GLOBALSTAR M069 1 31573U 07020C 20357.44824552 -.00000099 00000-0 25047-4 0 9990 2 31573 51.9941 128.1818 0002328 124.0541 262.7214 12.62265825627740 0 GLOBALSTAR M072 1 31574U 07020D 20358.09879310 -.00000095 00000-0 47960-4 0 9999 2 31574 52.0063 220.9984 0002353 55.7596 68.2929 12.62270133626234 0 GLOBALSTAR M071 1 31576U 07020F 20357.72549750 -.00000089 00000-0 85059-4 0 9996 2 31576 52.0054 131.5092 0002915 114.1615 332.5092 12.62263788627674 0 GLOBALSTAR M067 1 32263U 07048A 20357.41779365 -.00000081 00000-0 12376-3 0 9996 2 32263 51.9707 147.7773 0002153 98.3378 289.6030 12.40598178606377 0 GLOBALSTAR M070 1 32264U 07048B 20357.39282514 -.00000115 00000-0 -61862-4 0 9993 2 32264 51.9762 77.5426 0002078 157.9803 277.7917 12.62264878607010 0 GLOBALSTAR M066 1 32265U 07048C 20358.14622811 -.00000085 00000-0 10562-3 0 9991 2 32265 51.9685 297.8193 0001183 329.7338 131.1889 12.62264064610136 0 GLOBALSTAR M068 1 32266U 07048D 20357.78449074 -.00000088 00000-0 86007-4 0 9990 2 32266 51.9880 253.0325 0001733 80.8013 304.6603 12.62722361610984 0 GLOBALSTAR M079 1 37188U 10054A 20358.19537257 -.00000111 00000-0 -39381-4 0 9997 2 37188 52.0050 83.0598 0000646 141.4360 232.2665 12.62264776470403 0 GLOBALSTAR M074 1 37189U 10054B 20357.50902207 -.00000106 00000-0 -14147-4 0 9990 2 37189 52.0027 84.7269 0000699 145.3156 227.7755 12.62268538470280 0 GLOBALSTAR M076 1 37190U 10054C 20357.47041890 -.00000100 00000-0 21383-4 0 9993 2 37190 52.0041 84.8628 0000288 101.3370 337.1111 12.62265089470035 0 GLOBALSTAR M077 1 37191U 10054D 20358.15691521 -.00000105 00000-0 -96225-5 0 9996 2 37191 52.0090 39.1636 0000307 127.7000 250.4666 12.62267198471144 0 GLOBALSTAR M075 1 37192U 10054E 20358.13745626 -.00000097 00000-0 36640-4 0 9994 2 37192 51.9939 125.9956 0000799 115.0040 56.2480 12.62264066469631 0 GLOBALSTAR M073 1 37193U 10054F 20357.39041904 -.00000103 00000-0 59086-5 0 9998 2 37193 52.0078 40.8517 0000334 129.8380 243.7553 12.62265302471003 0 GLOBALSTAR M083 1 37739U 11033A 20357.42577723 -.00000108 00000-0 -22414-4 0 9999 2 37739 51.9878 351.7101 0000315 141.7034 333.9933 12.62266749440237 0 GLOBALSTAR M088 1 37740U 11033B 20357.49071659 -.00000100 00000-0 23826-4 0 9994 2 37740 51.9730 258.3823 0000548 58.1084 113.1357 12.62263164435794 0 GLOBALSTAR M091 1 37741U 11033C 20357.79344226 -.00000100 00000-0 18851-4 0 9993 2 37741 51.9976 218.0831 0000955 78.8473 327.8864 12.62265046436667 0 GLOBALSTAR M085 1 37742U 11033D 20357.46023358 -.00000097 00000-0 38658-4 0 9990 2 37742 51.9838 171.5837 0001136 99.6299 292.6342 12.62264514437102 0 GLOBALSTAR M081 1 37743U 11033E 20357.48377797 -.00000100 00000-0 20854-4 0 9996 2 37743 51.9931 173.2912 0000894 92.7161 284.8672 12.62268660437231 0 GLOBALSTAR M089 1 37744U 11033F 20357.44584823 -.00000107 00000-0 -20753-4 0 9999 2 37744 51.9920 127.9410 0001084 96.6201 289.1821 12.62268166437975 0 GLOBALSTAR M084 1 38040U 11080A 20358.18314762 -.00000088 00000-0 88802-4 0 9992 2 38040 52.0024 352.1233 0000411 37.9652 40.7916 12.62266421416210 0 GLOBALSTAR M080 1 38041U 11080B 20358.15639865 -.00000101 00000-0 17221-4 0 9997 2 38041 52.0075 353.2382 0000416 32.6463 42.9919 12.62267617416193 0 GLOBALSTAR M082 1 38042U 11080C 20358.17482355 -.00000093 00000-0 59293-4 0 9995 2 38042 52.0086 308.4543 0000303 81.1711 19.2591 12.62281108416933 0 GLOBALSTAR M092 1 38043U 11080D 20357.43591642 -.00000105 00000-0 -40942-5 0 9991 2 38043 52.0103 40.9878 0000638 100.3626 0.4725 12.62269464415293 0 GLOBALSTAR M090 1 38044U 11080E 20358.20279554 -.00000098 00000-0 34442-4 0 9990 2 38044 51.9895 304.2889 0000381 47.7314 59.6339 12.62265478416920 0 GLOBALSTAR M086 1 38045U 11080F 20357.44833035 -.00000097 00000-0 38990-4 0 9997 2 38045 51.9907 307.0102 0001277 328.9332 188.3477 12.62264642416737 0 GLOBALSTAR M097 1 39072U 13005A 20357.36130619 -.00000099 00000-0 28080-4 0 9997 2 39072 52.0026 220.1530 0000652 58.6490 301.4440 12.62266865364054 0 GLOBALSTAR M093 1 39073U 13005B 20357.80952214 -.00000097 00000-0 35717-4 0 9993 2 39073 51.9787 214.7127 0000625 90.6264 269.4674 12.62266161364100 0 GLOBALSTAR M094 1 39074U 13005C 20357.41389552 -.00000096 00000-0 43216-4 0 9992 2 39074 51.9947 128.6631 0000888 117.6069 242.4888 12.62266551365546 0 GLOBALSTAR M096 1 39075U 13005D 20357.50618170 -.00000096 00000-0 40669-4 0 9993 2 39075 52.0046 175.6156 0000909 99.7589 260.3380 12.62267132364703 0 GLOBALSTAR M078 1 39076U 13005E 20358.11327236 -.00000157 00000-0 -29931-3 0 9999 2 39076 51.9875 260.5055 0001108 114.3360 245.7622 12.62266783363387 0 GLOBALSTAR M095 1 39077U 13005F 20358.13937877 -.00000095 00000-0 47957-4 0 9999 2 39077 51.9795 258.4366 0000717 102.6402 257.4545 12.62264839363397